Weather History for Sheridan, WY

Change the Weather History Date:

Saturday, March 15, 2014

  Actual Average Record
Temperature  
Mean Temperature 37 °F 35 °F  
Max Temperature 46 °F 48 °F 70 °F (1996)
Min Temperature 27 °F 22 °F -2 °F (1943)
Degree Days  
Heating Degree Days 28 30  
Month to date heating degree days 507 485  
Since 1 July heating degree days 6257 6020  
Cooling Degree Days 0 0  
Month to date cooling degree days 0 0  
Year to date cooling degree days 0 0  
Moisture  
Dew Point 28 °F    
Average Humidity 69    
Maximum Humidity 89    
Minimum Humidity 48    
Precipitation  
Precipitation T in 0.03 in 0.54 in (1955)
Month to date precipitation 0.69 0.40  
Year to date precipitation 2.54 1.50  
Sea Level Pressure  
Sea Level Pressure 30.16 in    
Wind  
Wind Speed 15 mph (NW)    
Max Wind Speed 36 mph    
Max Gust Speed 43 mph    
Visibility 9 miles    
Events Snow    
T = Trace of Precipitation, MM = Missing Value Source: NWS Daily Summary

Daily Weather History Graph

Daily Weather History Graph

Search for Another Location

Airport:

Trip Planner

Search our weather history database for the weather conditions in past years. The results will help you decide how hot, cold, wet, or windy it might be!

Date:

Astronomy

Mar. 15, 2014 Rise Set
Actual Time 7:20 AM MDT 7:14 PM MDT
Civil Twilight 6:51 AM MDT 7:43 PM MDT
Nautical Twilight 6:17 AM MDT 8:17 PM MDT
Astronomical Twilight 5:42 AM MDT 8:51 PM MDT
Moon 6:35 PM MDT (3/15) 6:35 AM MDT (3/15)
Length of Visible Light 12h 52m
Length of Day
11h 53m
Waxing Gibbous, 99% of the Moon is Illuminated
Mar 15
Waxing Gibbous
Mar 16
Full
Mar 23
Last Quarter
Mar 30
New
Apr 7
First Quarter

Hourly Weather History & Observations

Time (MDT) Temp. Windchill Dew Point Humidity Pressure Visibility Wind Dir Wind Speed Gust Speed Precip Events Conditions
12:53 AM 41.0 °F 36.4 °F 33.1 °F 73% 29.82 in 10.0 mi SSW 6.9 mph - N/A   Overcast
1:53 AM 39.9 °F 37.8 °F 32.0 °F 73% 29.84 in 10.0 mi West 3.5 mph - N/A   Partly Cloudy
2:53 AM 39.9 °F 30.0 °F 28.0 °F 63% 29.88 in 10.0 mi NNW 21.9 mph 33.4 mph N/A   Clear
3:53 AM 39.0 °F 31.0 °F 26.1 °F 60% 29.91 in 10.0 mi NW 13.8 mph - N/A   Overcast
4:53 AM 37.9 °F 33.5 °F 23.0 °F 55% 29.93 in 10.0 mi North 5.8 mph - N/A   Overcast
5:53 AM 37.9 °F 30.5 °F 21.0 °F 51% 29.98 in 10.0 mi NNW 11.5 mph - N/A   Clear
6:53 AM 37.9 °F 27.9 °F 19.9 °F 48% 30.02 in 10.0 mi NW 19.6 mph - N/A   Clear
7:53 AM 37.0 °F 24.5 °F 24.1 °F 59% 30.06 in 10.0 mi NW 29.9 mph 38.0 mph N/A   Clear
8:25 AM 34.0 °F 20.1 °F 28.9 °F 82% 30.06 in 1.8 mi NW 31.1 mph 39.1 mph 0.00 in Snow Light Snow
8:30 AM 34.0 °F 20.1 °F 30.0 °F 85% 30.06 in 0.8 mi NW 31.1 mph 36.8 mph 0.00 in Snow Light Snow
8:41 AM 34.0 °F 21.5 °F 30.9 °F 89% 30.07 in 1.0 mi WNW 24.2 mph 38.0 mph 0.00 in Snow Light Snow
8:53 AM 34.0 °F 21.5 °F 30.0 °F 85% 30.14 in 1.8 mi NW 24.2 mph 32.2 mph 0.00 in Snow Light Snow
8:57 AM 34.0 °F 21.8 °F 30.0 °F 85% 30.08 in 4.0 mi WNW 23.0 mph 31.1 mph 0.00 in Snow Light Snow
9:04 AM 34.0 °F 21.0 °F 30.0 °F 85% 30.09 in 9.0 mi WNW 26.5 mph 33.4 mph 0.00 in Snow Light Snow
9:53 AM 35.1 °F 23.3 °F 30.9 °F 85% 30.18 in 5.0 mi NW 23.0 mph 33.4 mph 0.00 in Snow Light Snow
10:53 AM 39.0 °F 27.8 °F 30.9 °F 73% 30.21 in 10.0 mi NW 26.5 mph 34.5 mph 0.00 in   Overcast
11:53 AM 39.9 °F 28.2 °F 30.0 °F 68% 30.25 in 10.0 mi NW 31.1 mph 40.3 mph N/A   Overcast
12:53 PM 39.9 °F 30.0 °F 28.0 °F 63% 30.27 in 10.0 mi NW 21.9 mph 32.2 mph N/A   Overcast
1:53 PM 45.0 °F 35.8 °F 28.9 °F 53% 30.25 in 10.0 mi NW 26.5 mph 35.7 mph N/A   Overcast
2:53 PM 43.0 °F 33.3 °F 27.0 °F 53% 30.28 in 10.0 mi NW 25.3 mph 32.2 mph 0.00 in   Overcast
3:53 PM 42.1 °F 34.9 °F 30.9 °F 65% 30.30 in 10.0 mi NW 13.8 mph - N/A   Overcast
4:53 PM 43.0 °F 36.0 °F 32.0 °F 65% 30.31 in 10.0 mi NNW 13.8 mph - N/A   Mostly Cloudy
5:53 PM 43.0 °F 35.7 °F 30.9 °F 62% 30.31 in 10.0 mi NNW 15.0 mph - N/A   Partly Cloudy
6:53 PM 41.0 °F 34.7 °F 30.0 °F 65% 30.32 in 10.0 mi North 10.4 mph - N/A   Clear
7:53 PM 33.1 °F 30.0 °F 27.0 °F 78% 30.34 in 10.0 mi WSW 3.5 mph - N/A   Clear
8:53 PM 30.0 °F - 25.0 °F 82% 30.37 in 10.0 mi Calm Calm - N/A   Clear
9:53 PM 28.9 °F 20.4 °F 25.0 °F 85% 30.37 in 10.0 mi SSW 9.2 mph - N/A   Clear
10:53 PM 30.9 °F 25.2 °F 26.1 °F 82% 30.34 in 10.0 mi SSW 5.8 mph - N/A   Overcast
11:53 PM 33.1 °F 27.7 °F 27.0 °F 78% 30.30 in 10.0 mi South 5.8 mph - N/A   Overcast